[source: ADDS]
METAR
EDVE 051120Z 25015KT 9999 BKN033 24/16 Q1009

TAF EDVE 051100Z 0512/0521 24015G25KT 9999 BKN020 TEMPO 0512/0517 24020G35KT PROB30 TEMPO 0514/0516 BKN012 BECMG 0518/0520 24010KT EDDV 051120Z 25016G27KT 9999 BKN023 21/17 Q1008 TEMPO 23020G35KT

TAF EDDV 051100Z 0512/0612 24015G25KT 9999 BKN025 TEMPO 0512/0517 24020G35KT PROB40 TEMPO 0513/0516 BKN012 BECMG 0518/0520 24009KT BECMG 0603/0606 24015G25KT TEMPO 0607/0612 26020G35KT ETHS 051020Z 26015KT 9999 BKN020 20/16 Q1008 WHT

ETHC 051020Z 23020KT 9999 BKN022 22/16 Q1008 WHT

EDVK 051120Z 23018G28KT 190V250 9999 BKN038 25/15 Q1011

TAF EDVK 051100Z 0512/0521 22012KT 9999 BKN030 TEMPO 0512/0519 23015G30KT
TAF
TAF EDVE 050800Z 0509/0518 24015G25KT 9999 BKN025 TEMPO 0509/0518 25020G35KT PROB30 TEMPO 0513/0517 BKN012

TAF EDDV 050500Z 0506/0606 23012KT 9999 BKN015 BECMG 0506/0508 25015G25KT PROB40 TEMPO 0506/0509 25020G30KT BKN012 TEMPO 0509/0517 25020G35KT BECMG 0518/0520 23008KT

TAF EDVK 050800Z 0509/0518 22012KT 9999 BKN020 TEMPO 0509/0518 23015G30KT

SR / SS: 03:04 / 19:40 UTC (EDVE 2020-07-05)
Oliver hat seinen ersten Alleinflug absolviert! Herzlichen Glückwunsch und weiterhin Happy Landings! +++ Wir begrüßen Gianluca in den Reihen der FFG! Viel Erfolg bei der Ausbildung! +++ Schon wieder zwei neue Mitglieder, herzlich Willkommen Andreas und Thomas! +++ Willkommen in der FFG Fabian! +++ Jens hat die praktische Prüfung bestanden! Herzlichen Glückwunsch und allzeit guten Flug! +++ Wir begrüßen Christopher als neues Mitglied der FFG! Always Happy Landings! +++ Flugbetrieb und Ausbildungsbetrieb unter Auflagen wieder möglich. +++ Gero steht ebenfalls als Fluglehrer zur Verfügung! Vielen Dank an Gero und viel Erfolg beim Ausbilden. +++ Ilya hat die Theorieprüfung bestanden! Herzlichen Glückwunsch und weiterhin viel Erfolg für die restliche Ausbildung! +++ Hallo Felix, herzlich Willkommen bei der FFG und viel Erfolg für deine Pilotenausbildung! +++ Jens verstärkt als neuer Fluglehrer ab sofort unser FFG-Fluglehrer-Team. Glückwunsch und viel Erfolg beim Ausbilden! +++

Neues Bild in 60 Sekunden

Letztes NOTAM EDVE
von 03.07.2020 0710Z bis 01.10.2020 2359Z
SID CHG, DUE TO OUTAGE OF DLE DVOR/DME: GPS/FMS RNAV OVERLAY REMAIN UNCHANGED. AMEND DLE DVOR/DME TO READ DLE INT. PSN REMAINS UNCHANG [more]

Letztes NOTAM EDBC
von 21.07.2020 0800Z bis 22.07.2020 1200Z
21 0800-1300, 22 0700-1200
VOR/DME MAG/MAGDEBURG 110.45 MHZ/CH41Y ON TEST. DO NOT USE FALSE INDICATIONS POSS.

Letztes NOTAM EDVM
von 25.06.2019 0700Z bis PERM
SAFETYZONE FOR PJE ESTABLISHED ON APRON 1, TWY D BTN TWY G AND B AND TWY B SOUTH TWY D. DURING PJE ACT START UP OF ENGINES NOT PERMITTED. ACTUAL [more]

Letztes NOTAM EDOV
von 04.07.2020 0600Z bis 05.07.2020 1938Z
DAILY 0600-SS
PJE 2NM RADIUS CENTERED ON PSN 523744N 0114912E, STENDAL-BORSTEL.
GND- FL120

Letztes NOTAM EDDV
von 03.07.2020 1414Z bis 03.10.2020 2000Z
COVID-19: INFORMATION GENERAL AVIATION TERMINAL REFUELING SERVICE JET A1 AVBL PPR 45MIN IN ADVANCE: MON-SUN DAILY 0400-0500 AND 1800- [more]

Letztes NOTAM EDVK
von 25.06.2020 1023Z bis 06.07.2020 2030Z
PAYMENTS POSS VIA CLIENT ACCOUNT, CREDIT CARD, PREPAYMENT OR VIA AEROPS (WWW.AEROPS.COM), CASH PAYMENT PPR OPS +49(0)5674 2153 309
[more]


Letztes NOTAM EDVS
von 01.07.2020 1304Z bis 30.09.2020 2359Z
CRANE APRX 244M SE OF RWY. HGT 30M AGL. DAY AND NIGHT MARKED.

          aerodata150     Radio38